NOAA 17 DEB

Satellite information

Favourite Embed

Satellite Type and Status

DEBRISIN ORBIT

Key statistics

Satellite NOAA 17 DEB at a glance.

Uptime

8477

Days in orbit

Revolutions

≈ 14.8

Per day

Orbit

SSO

Sun Synchronous Orbit

Inclination

99.0

Latest

Satellite identification and parameters

Extended collection of information and parameters for NOAA 17 DEB.

Object identification

Identified? True

Debris? True

Object name: NOAA 17 DEB

International designator: 2002-032AW

Object number (NORAD): 48713

Object ID (CCSDS): 48713

Country: UNITED STATES OF AMERICA (US)

Current information (Y/N): Y

RCS size: SMALL

Orbital parameters

Period: 97.102 minutes

Inclination: 98.9729 deg

SMA: 6998.06 km

Apoapsis: 655.366 km

Periapsis: 584.484 km

RAAN: 342.3366 deg

Eccentricy: 0.00506435

Argument of periapsis: 137.8323 deg

Mean anomaly: 222.6801 deg

Mean motion: 14.82983367 rev/day

Mean motion (dot): 0.00051512 rev/day2

B* drag term: 0.0061649266 1/REarth

Two-line elements (TLE)

Creation date: Sept. 6, 2025, 10:23 a.m.

Reference frame: TEME

Reference center: EARTH

Epoch: Sept. 6, 2025, 5:44 a.m. UTC

TLE line 0: 0 NOAA 17 DEB

TLE line 1: 1 48713U 02032AW 25249.23903945 .00051512 00000-0 61649-2 0 9999

TLE line 2: 2 48713 98.9729 342.3366 0050644 137.8323 222.6801 14.82983367237589

Live tracking on map

Real-time ground track for satellite NOAA 17 DEB.

In-orbit conjunctions

A list of the most updated potential collisions computed for object NOAA 17 DEB.

Target Orbit TCA Probability of collision Miss distance Type
CZ-6A DEB LEO 2025-01-31 12:43:20 0.0001325664 680.0 (m) DEBRIS
COSMOS 2251 DEB LEO 2024-11-20 21:45:56 0.0001986386 78.0 (m) DEBRIS

Associated space launch

NOAA M carried weather imagers and microwave and infrared sounders, as well as a SARSAT search-and-rescue package. It had an on-orbit mass of 1475 kg.

NOAA 17 DEB was lifted into orbit during the mission ‘Titan II SLV | NOAA 17’, on board a Titan II SLV space rocket.

The launch took place on June 24, 2002, 6:23 p.m. from Space Launch Complex 4W.

For more information about the launch, click the button.

Launch to space Titan II SLV | NOAA 17
Titan II SLV | NOAA 17

Agency: N/A

Status: Launch Successful

Launch date: June 24, 2002, 6:23 p.m. UTC

Rocket: Titan II SLV

Launch pad: Space Launch Complex 4W

Location: Vandenberg SFB, CA, USA

...

Latest news about this satellite

There are no fresh news available about this satellite. Check back as we update our databases every day.


Newsletter sign-up

Weekly statistics, charts and insights to help you stay on top of the space industry.